Regional Weather Roundup
Issued by NWS Binghamton, NY

Home | Current Version | Previous Version | Text Only | Print | Product List | Glossary On
Versions: 1 2 3 4 5 6 7 8 9 10 11 12 13 14 15 16 17 18 19 20 21 22 23 24 25 26 27 28 29 30 31 32 33 34 35 36 37 38 39 40 41 42 43 44 45 46 47 48 49 50
000
ASUS41 KBGM 251110
RWRBGM
RWRBGM
BINGHAMTON REGIONAL WEATHER ROUNDUP
NATIONAL WEATHER SERVICE BINGHAMTON NY
700 AM EDT FRI JUL 25 2014

Note: "fair" indicates few or no clouds below 12,000 feet with no
significant weather and/or obstructions to visibility.

* = Station(s) that does not report precipitation, such as rain,
snow, etc, also no thunder or fog.

!NYZ009-015>018-022>025-036-037-044>046-055>057-062-251200
...CENTRAL NEW YORK...

CITY           SKY/WX    TMP DP  RH WIND       PRES   REMARKS
BINGHAMTON     SUNNY     50  49  96 SW5       30.06R
CORTLAND       FAIR      46  46 100 CALM      30.08R
DANSVILLE        N/A    N/A N/A N/A MISG      30.09R
ELMIRA         SUNNY     48  48 100 CALM      30.07R
ITHACA         SUNNY     50  49  96 E5        30.08R
HAMILTON       CLOUDY    50  48  93 CALM      30.06R
MONTICELLO     SUNNY     52  48  87 NW3       30.05R
NORWICH        FOG       46  46 100 CALM      30.08R VSB 1/4
ONEONTA        FOG       48  48 100 CALM      30.05R VSB 1/2
PENN YAN       SUNNY     55  52  89 SW8       30.06R
ROME           SUNNY     51  50  96 CALM      30.05R
SIDNEY         FOG       50  50 100 CALM      30.07R VSB 1/4
SYRACUSE       SUNNY     58  54  86 SW3       30.03R
$$

!PAZ038>040-043-044-047-048-072-251200
...NORTHEAST PENNSYLVANIA...

CITY           SKY/WX    TMP DP  RH WIND       PRES   REMARKS
HAZLETON       SUNNY     50  48  93 CALM      30.10R
SCRANTON       SUNNY     52  48  86 CALM      30.07R
TOWANDA*       SUNNY     48  48 100 W3        30.09R
$$
&&
KEY
WCI = WIND CHILL INDEX
VSB = VISIBILITY
HX  = HEAT INDEX
$$


USA.gov is the U.S. government's official web portal to all federal, state and local government web resources and services.